• In Portugal
  • List of Countries
  • For 7 days
  • Water Temperature
  • Satellite Maps
  • Weather Map
  • Weather Widgets
  • user-avatar
    Login

    Hourly Weather Etchmiadzin

    Today, 19 September, Tuesday

    Time Temperature Precipitation Wind Pressure Humidity
    00:00 +22°C° 0.4 mm 1 mps 689 mmHg 53%
    01:00 +22°C° 0 mm 1 mps 688 mmHg 54%
    02:00 +21°C° 0 mm 1 mps 688 mmHg 55%
    03:00 +21°C° 0 mm 2 mps 688 mmHg 53%
    04:00 +21°C° 0 mm 1 mps 688 mmHg 52%
    05:00 +21°C° 0 mm 1 mps 688 mmHg 52%
    06:00 +20°C° 0 mm 1 mps 688 mmHg 52%
    07:00 +23°C° 0 mm 1 mps 688 mmHg 43%
    08:00 +26°C° 0 mm 1 mps 689 mmHg 35%
    09:00 +29°C° 0 mm 1 mps 689 mmHg 25%
    10:00 +30°C° 0 mm 2 mps 689 mmHg 23%
    11:00 +31°C° 0 mm 2 mps 689 mmHg 20%
    12:00 +32°C° 0 mm 2 mps 689 mmHg 18%
    13:00 +32°C° 0 mm 2 mps 689 mmHg 17%
    14:00 +32°C° 0 mm 2 mps 688 mmHg 17%
    15:00 +34°C° 0 mm 2 mps 688 mmHg 16%
    16:00 +31°C° 0 mm 2 mps 688 mmHg 19%
    17:00 +28°C° 0 mm 1 mps 687 mmHg 23%
    18:00 +26°C° 0 mm 1 mps 687 mmHg 26%
    19:00 +26°C° 0 mm 1 mps 687 mmHg 29%
    20:00 +25°C° 0 mm 1 mps 688 mmHg 32%
    21:00 +24°C° 0 mm 2 mps 688 mmHg 35%
    22:00 +23°C° 0 mm 2 mps 688 mmHg 38%
    23:00 +23°C° 0 mm 2 mps 688 mmHg 41%

    Tomorrow, 20 September, Wednesday

    Time Temperature Precipitation Wind Pressure Humidity
    00:00 +21°C° 0 mm 2 mps 688 mmHg 44%
    01:00 +22°C° 0 mm 1 mps 688 mmHg 45%
    02:00 +21°C° 0 mm 1 mps 688 mmHg 46%
    03:00 +21°C° 0 mm 1 mps 688 mmHg 47%
    04:00 +21°C° 0 mm 1 mps 688 mmHg 48%
    05:00 +20°C° 0 mm 1 mps 688 mmHg 48%
    06:00 +20°C° 0 mm 1 mps 688 mmHg 49%
    07:00 +23°C° 0 mm 1 mps 688 mmHg 41%
    08:00 +25°C° 0 mm 1 mps 689 mmHg 32%
    09:00 +28°C° 0 mm 1 mps 689 mmHg 24%
    10:00 +29°C° 0 mm 2 mps 689 mmHg 21%
    11:00 +31°C° 0 mm 2 mps 689 mmHg 19%
    12:00 +32°C° 0 mm 2 mps 689 mmHg 17%
    13:00 +32°C° 0 mm 2 mps 688 mmHg 16%
    14:00 +34°C° 0 mm 2 mps 688 mmHg 16%
    15:00 +34°C° 0 mm 2 mps 688 mmHg 15%
    16:00 +31°C° 0 mm 2 mps 687 mmHg 18%
    17:00 +29°C° 0 mm 2 mps 687 mmHg 21%
    18:00 +27°C° 0 mm 1 mps 687 mmHg 24%
    19:00 +26°C° 0 mm 2 mps 687 mmHg 28%
    20:00 +25°C° 0 mm 2 mps 687 mmHg 32%
    21:00 +24°C° 0 mm 2 mps 687 mmHg 36%
    22:00 +24°C° 0 mm 2 mps 687 mmHg 39%
    23:00 +23°C° 0 mm 2 mps 687 mmHg 42%

    Day after tomorrow, 21 September, Thursday

    Time Temperature Precipitation Wind Pressure Humidity
    00:00 +23°C° 0 mm 2 mps 687 mmHg 45%
    01:00 +22°C° 0 mm 1 mps 687 mmHg 46%
    02:00 +22°C° 0 mm 1 mps 687 mmHg 48%
    03:00 +21°C° 0 mm 1 mps 687 mmHg 49%
    04:00 +21°C° 0 mm 1 mps 687 mmHg 48%
    05:00 +20°C° 0 mm 1 mps 687 mmHg 47%
    06:00 +20°C° 0 mm 1 mps 687 mmHg 46%
    07:00 +23°C° 0 mm 1 mps 687 mmHg 38%
    08:00 +26°C° 0 mm 1 mps 688 mmHg 30%
    09:00 +29°C° 0 mm 1 mps 688 mmHg 22%
    10:00 +30°C° 0 mm 2 mps 688 mmHg 20%
    11:00 +31°C° 0 mm 2 mps 688 mmHg 19%
    12:00 +34°C° 0 mm 2 mps 687 mmHg 17%
    13:00 +34°C° 0 mm 2 mps 687 mmHg 17%
    14:00 +34°C° 0 mm 2 mps 687 mmHg 17%
    15:00 +35°C° 0 mm 2 mps 686 mmHg 17%
    16:00 +32°C° 0 mm 2 mps 686 mmHg 20%
    17:00 +30°C° 0 mm 2 mps 686 mmHg 24%
    18:00 +28°C° 0 mm 2 mps 686 mmHg 27%
    19:00 +27°C° 0 mm 2 mps 686 mmHg 31%
    20:00 +26°C° 0 mm 2 mps 686 mmHg 35%
    21:00 +26°C° 0 mm 2 mps 687 mmHg 39%
    22:00 +25°C° 0 mm 2 mps 687 mmHg 42%
    23:00 +24°C° 0 mm 2 mps 686 mmHg 45%

    22 September, Friday

    Time Temperature Precipitation Wind Pressure Humidity
    00:00 +24°C° 0 mm 2 mps 686 mmHg 48%
    01:00 +23°C° 0 mm 2 mps 686 mmHg 50%
    02:00 +21°C° 0 mm 2 mps 686 mmHg 52%
    03:00 +21°C° 0 mm 2 mps 686 mmHg 54%
    04:00 +20°C° 0 mm 2 mps 686 mmHg 55%
    05:00 +20°C° 0 mm 2 mps 686 mmHg 56%
    06:00 +21°C° 0 mm 1 mps 686 mmHg 57%
    07:00 +23°C° 0 mm 1 mps 686 mmHg 48%
    08:00 +26°C° 0 mm 1 mps 687 mmHg 38%
    09:00 +28°C° 0 mm 2 mps 687 mmHg 29%
    10:00 +30°C° 0 mm 2 mps 687 mmHg 26%
    11:00 +31°C° 0 mm 2 mps 686 mmHg 23%
    12:00 +32°C° 0 mm 2 mps 686 mmHg 20%
    13:00 +32°C° 0 mm 2 mps 686 mmHg 19%
    14:00 +34°C° 0 mm 2 mps 686 mmHg 19%
    15:00 +34°C° 0 mm 2 mps 685 mmHg 19%
    16:00 +31°C° 0 mm 2 mps 685 mmHg 23%
    17:00 +29°C° 0 mm 2 mps 685 mmHg 27%
    18:00 +26°C° 0 mm 1 mps 685 mmHg 32%
    19:00 +26°C° 0.1 mm 2 mps 685 mmHg 37%
    20:00 +25°C° 0.1 mm 2 mps 686 mmHg 41%
    21:00 +24°C° 0.1 mm 3 mps 686 mmHg 46%
    22:00 +23°C° 0.1 mm 2 mps 687 mmHg 48%
    23:00 +21°C° 0.1 mm 2 mps 687 mmHg 50%

    23 September, Saturday

    Time Temperature Precipitation Wind Pressure Humidity
    00:00 +21°C° 0.1 mm 2 mps 687 mmHg 52%
    01:00 +20°C° 0.1 mm 2 mps 687 mmHg 53%
    02:00 +20°C° 0.1 mm 2 mps 687 mmHg 53%
    03:00 +19°C° 0.1 mm 2 mps 687 mmHg 54%
    04:00 +19°C° 0.1 mm 2 mps 687 mmHg 54%
    05:00 +19°C° 0.1 mm 2 mps 687 mmHg 55%
    06:00 +18°C° 0.1 mm 2 mps 687 mmHg 56%
    07:00 +22°C° 0.1 mm 1 mps 688 mmHg 49%
    08:00 +24°C° 0.1 mm 1 mps 688 mmHg 43%
    09:00 +26°C° 0.1 mm 1 mps 689 mmHg 36%
    10:00 +28°C° 0 mm 1 mps 689 mmHg 33%
    11:00 +29°C° 0 mm 2 mps 688 mmHg 30%
    12:00 +30°C° 0 mm 2 mps 688 mmHg 27%
    13:00 +31°C° 0.1 mm 2 mps 688 mmHg 26%
    14:00 +31°C° 0.1 mm 2 mps 688 mmHg 25%
    15:00 +31°C° 0.1 mm 2 mps 688 mmHg 24%
    16:00 +29°C° 0.2 mm 2 mps 687 mmHg 28%
    17:00 +27°C° 0.2 mm 2 mps 687 mmHg 33%
    18:00 +25°C° 0.2 mm 1 mps 687 mmHg 37%
    19:00 +24°C° 0.1 mm 2 mps 688 mmHg 40%
    20:00 +24°C° 0.1 mm 2 mps 688 mmHg 44%
    21:00 +23°C° 0.1 mm 2 mps 689 mmHg 47%
    22:00 +21°C° 0 mm 2 mps 689 mmHg 48%
    23:00 +21°C° 0 mm 2 mps 689 mmHg 50%

    24 September, Sunday

    Time Temperature Precipitation Wind Pressure Humidity
    00:00 +20°C° 0 mm 2 mps 689 mmHg 51%
    01:00 +20°C° 0.1 mm 2 mps 689 mmHg 52%
    02:00 +19°C° 0.1 mm 2 mps 688 mmHg 53%
    03:00 +19°C° 0.1 mm 2 mps 688 mmHg 54%
    04:00 +19°C° 0.1 mm 2 mps 689 mmHg 54%
    05:00 +18°C° 0.1 mm 2 mps 689 mmHg 55%
    06:00 +19°C° 0.1 mm 1 mps 689 mmHg 56%
    07:00 +21°C° 0.1 mm 1 mps 689 mmHg 49%
    08:00 +24°C° 0.1 mm 1 mps 689 mmHg 42%
    09:00 +26°C° 0.1 mm 1 mps 690 mmHg 35%
    10:00 +27°C° 0 mm 1 mps 690 mmHg 32%
    11:00 +29°C° 0 mm 2 mps 689 mmHg 29%
    12:00 +30°C° 0 mm 2 mps 689 mmHg 25%
    13:00 +30°C° 0.1 mm 2 mps 689 mmHg 25%
    14:00 +31°C° 0.1 mm 2 mps 688 mmHg 24%
    15:00 +31°C° 0.1 mm 2 mps 688 mmHg 24%
    16:00 +29°C° 0.1 mm 2 mps 688 mmHg 28%
    17:00 +27°C° 0.1 mm 1 mps 688 mmHg 32%
    18:00 +25°C° 0.1 mm 1 mps 688 mmHg 37%
    19:00 +24°C° 0.1 mm 2 mps 688 mmHg 40%
    20:00 +23°C° 0.1 mm 2 mps 689 mmHg 43%
    21:00 +21°C° 0.1 mm 2 mps 689 mmHg 47%
    22:00 +21°C° 0 mm 2 mps 689 mmHg 48%
    23:00 +20°C° 0 mm 2 mps 689 mmHg 50%
    Show more